Location: Newark
(78.5500°S, 158.5500°E)
Time: 05:18:42
(UTC+00:00)

N. Korean satellite - Visible Passes

Search period start: 20 September 2019 00:00
Search period end: 30 September 2019 00:00
Orbit: 455 x 509 km, 97.2° (Epoch: 18 September)

Date Brightness Start Highest point End Pass type
(mag) Time Alt. Az. Time Alt. Az. Time Alt. Az.
20 Sep 7.1 10:19:26 10° SE 10:23:14 70° SW 10:27:04 10° WNW visible
20 Sep 7.8 11:52:47 10° ESE 11:56:28 49° SSW 12:00:11 10° W visible
20 Sep 8.0 13:25:55 10° E 13:29:34 45° S 13:33:14 10° WSW visible
20 Sep 7.5 14:58:59 10° ENE 15:02:42 57° SSE 15:06:29 10° SW visible
20 Sep 6.7 16:32:17 10° NE 16:36:04 87° NW 16:39:56 10° SW visible
21 Sep 6.9 09:54:11 10° SE 09:58:02 80° SW 10:01:53 10° NW visible
21 Sep 7.7 11:27:35 10° SE 11:31:19 52° SSW 11:35:04 10° W visible
21 Sep 8.0 13:00:47 10° ESE 13:04:25 45° S 13:08:06 10° WSW visible
21 Sep 7.7 14:33:50 10° E 14:37:32 52° SSE 14:41:17 10° SW visible
21 Sep 6.9 16:07:03 10° NE 16:10:50 81° SE 16:14:41 10° SW visible
22 Sep 6.7 09:28:56 10° SE 09:32:47 88° NE 09:36:39 10° NW visible
22 Sep 7.5 11:02:23 10° SE 11:06:09 57° SSW 11:09:56 10° WNW visible
22 Sep 8.0 12:35:38 10° ESE 12:39:18 45° S 12:42:59 10° W visible
22 Sep 7.8 14:08:42 10° E 14:12:23 49° SSE 14:16:06 10° WSW visible
22 Sep 7.1 15:41:50 10° ENE 15:45:37 70° SE 15:49:26 10° SW visible
22 Sep 6.7 17:15:22 10° NNE 17:19:08 65° WNW 17:22:58 10° SW visible
23 Sep 7.3 10:37:09 10° SE 10:40:58 64° SW 10:44:47 10° WNW visible
23 Sep 7.9 12:10:28 10° ESE 12:14:09 47° SSW 12:17:51 10° W visible
23 Sep 7.9 13:43:34 10° E 13:47:14 46° S 13:50:57 10° WSW visible
23 Sep 7.3 15:16:39 10° ENE 15:20:25 62° SSE 15:24:14 10° SW visible
23 Sep 6.7 16:50:02 10° NNE 16:53:51 78° NW 16:57:43 10° SW visible
24 Sep 7.1 10:11:56 10° SE 10:15:46 73° SW 10:19:36 10° NW visible
24 Sep 7.8 11:45:17 10° ESE 11:49:01 50° SSW 11:52:45 10° W visible
24 Sep 8.0 13:18:26 10° ESE 13:22:06 45° S 13:25:47 10° WSW visible
24 Sep 7.6 14:51:29 10° ENE 14:55:14 56° SSE 14:59:01 10° SW visible
24 Sep 6.8 16:24:45 10° NE 16:28:35 89° SSE 16:32:27 10° SW visible
25 Sep 6.9 09:46:41 10° SE 09:50:32 84° SW 09:54:23 10° NW visible
25 Sep 7.7 11:20:06 10° SE 11:23:51 53° SSW 11:27:36 10° W visible
25 Sep 8.0 12:53:17 10° ESE 12:56:58 45° S 13:00:39 10° WSW visible
25 Sep 7.8 14:26:20 10° E 14:30:04 51° SSE 14:33:49 10° SW visible
25 Sep 6.9 15:59:32 10° NE 16:03:20 78° SE 16:07:12 10° SW visible
26 Sep 7.5 10:54:53 10° SE 10:58:40 59° SSW 11:02:28 10° WNW visible
26 Sep 8.0 12:28:08 10° ESE 12:31:49 46° S 12:35:31 10° W visible
26 Sep 7.9 14:01:13 10° E 14:04:54 48° SSE 14:08:38 10° WSW visible
26 Sep 7.2 15:34:19 10° ENE 15:38:07 68° SE 15:41:57 10° SW visible
27 Sep 7.2 10:29:38 10° SE 10:33:28 66° SW 10:37:17 10° WNW visible
27 Sep 7.9 12:02:58 10° ESE 12:06:41 48° SSW 12:10:23 10° W visible
27 Sep 8.0 13:36:05 10° E 13:39:45 46° S 13:43:28 10° WSW visible
27 Sep 7.4 15:09:08 10° ENE 15:12:55 60° SSE 15:16:44 10° SW visible
28 Sep 7.8 11:37:46 10° SE 11:41:31 51° SSW 11:45:15 10° W visible
28 Sep 8.1 13:10:56 10° ESE 13:14:37 45° S 13:18:18 10° WSW visible
28 Sep 7.6 14:43:59 10° ENE 14:47:44 54° SSE 14:51:31 10° SW visible
29 Sep 7.6 11:12:34 10° SE 11:16:21 55° SSW 11:20:07 10° WNW visible
29 Sep 8.1 12:45:47 10° ESE 12:49:28 45° S 12:53:09 10° WSW visible
29 Sep 7.8 14:18:50 10° E 14:22:34 50° SSE 14:26:19 10° SW visible
29 Sep 7.0 15:52:00 10° NE 15:55:49 75° SE 15:59:40 10° SW visible
